Weather History for Oskaloosa, IA

Change the Weather History Date:

Friday, January 18, 2013

  Actual Average (KOTM) Record (KOTM)
Temperature  
Mean Temperature 38 °F 22 °F  
Max Temperature 56 °F 31 °F 60 °F (1951)
Min Temperature 20 °F 13 °F -22 °F (1930)
Degree Days  
Heating Degree Days 27 43  
Month to date heating degree days 768  
Since 1 July heating degree days 3273  
Cooling Degree Days 0 0  
Month to date cooling degree days 0  
Year to date cooling degree days 0  
Moisture  
Dew Point 27 °F    
Average Humidity 60    
Maximum Humidity 84    
Minimum Humidity 35    
Precipitation  
Precipitation 0.00 in 0.03 in 1.03 in (1973)
Month to date precipitation 0.56  
Year to date precipitation 0.56  
Sea Level Pressure  
Sea Level Pressure 30.08 in    
Wind  
Wind Speed 16 mph (SSW)    
Max Wind Speed 33 mph    
Max Gust Speed 44 mph    
Visibility 10 miles    
Events      
T = Trace of Precipitation, MM = Missing Value Source: NWS Daily Summary

Daily Weather History Graph

Daily Weather History Graph

Search for Another Location

Airport:

Trip Planner

Search our weather history database for the weather conditions in past years. The results will help you decide how hot, cold, wet, or windy it might be!

Date:

Astronomy

Jan. 18, 2013 Rise Set
Actual Time 7:31 AM CST 5:09 PM CST
Civil Twilight 7:01 AM CST 5:39 PM CST
Nautical Twilight 6:27 AM CST 6:13 PM CST
Astronomical Twilight 5:54 AM CST 6:46 PM CST
Moon 11:05 AM CST (1/18) 12:05 AM CST (1/18)
Length of Visible Light 10h 38m
Length of Day
9h 38m
Waxing Crescent, 47% of the Moon is Illuminated
Jan 18
Waxing Crescent
Jan 18
First Quarter
Jan 26
Full
Feb 3
Last Quarter
Feb 10
New

Hourly Weather History & Observations

Time (CST) Temp. Windchill Dew Point Humidity Pressure Visibility Wind Dir Wind Speed Gust Speed Precip Events Conditions
12:15 AM 20.8 °F 11.2 °F 15.8 °F 81% 30.37 in 10.0 mi SSE 8.1 mph - N/A   Clear
12:35 AM 21.6 °F 11.3 °F 16.3 °F 80% 30.37 in 10.0 mi SSE 9.2 mph - N/A   Clear
12:55 AM 22.5 °F 13.2 °F 16.9 °F 79% 30.36 in 10.0 mi SSE 8.1 mph - N/A   Clear
1:15 AM 21.6 °F 11.3 °F 16.7 °F 82% 30.36 in 10.0 mi SSE 9.2 mph - N/A   Clear
1:35 AM 22.5 °F 11.7 °F 17.4 °F 81% 30.35 in 10.0 mi South 10.4 mph - N/A   Clear
1:55 AM 21.4 °F 11.9 °F 16.7 °F 82% 30.35 in 10.0 mi South 8.1 mph - N/A   Clear
2:15 AM 21.2 °F 10.1 °F 17.1 °F 84% 30.34 in 10.0 mi South 10.4 mph - N/A   Clear
2:35 AM 24.1 °F 13.1 °F 19.2 °F 82% 30.33 in 10.0 mi South 11.5 mph - N/A   Clear
2:55 AM 25.2 °F 15.1 °F 19.8 °F 80% 30.32 in 10.0 mi South 10.4 mph - N/A   Clear
3:15 AM 24.8 °F 15.3 °F 19.9 °F 82% 30.32 in 10.0 mi South 9.2 mph - N/A   Clear
3:35 AM 24.8 °F 15.3 °F 20.1 °F 82% 30.31 in 10.0 mi South 9.2 mph - N/A   Clear
3:55 AM 29.3 °F 19.1 °F 24.4 °F 82% 30.30 in 10.0 mi SSW 12.7 mph - N/A   Clear
4:15 AM 30.9 °F 20.2 °F 24.6 °F 77% 30.29 in 10.0 mi SSW 15.0 mph - N/A   Clear
4:35 AM 31.8 °F 21.0 °F 25.0 °F 76% 30.27 in 10.0 mi SSW 16.1 mph 20.7 mph N/A   Clear
4:55 AM 32.0 °F 20.8 °F 25.3 °F 76% 30.26 in 10.0 mi SSW 17.3 mph 20.7 mph N/A   Clear
5:15 AM 32.0 °F 20.8 °F 25.5 °F 77% 30.25 in 10.0 mi South 17.3 mph - N/A   Clear
5:35 AM 32.0 °F 21.6 °F 25.5 °F 77% 30.24 in 10.0 mi SSW 15.0 mph - N/A   Clear
5:55 AM 32.0 °F 22.1 °F 25.5 °F 77% 30.23 in 10.0 mi SSW 13.8 mph - N/A   Clear
6:15 AM 32.0 °F 20.8 °F 25.7 °F 78% 30.22 in 10.0 mi SSW 17.3 mph - N/A   Clear
6:35 AM 32.0 °F 21.2 °F 25.7 °F 78% 30.21 in 10.0 mi SSW 16.1 mph - N/A   Clear
6:55 AM 32.0 °F 21.2 °F 25.7 °F 78% 30.20 in 10.0 mi SSW 16.1 mph - N/A   Clear
7:15 AM 32.0 °F 21.6 °F 25.9 °F 78% 30.20 in 10.0 mi SSW 15.0 mph - N/A   Clear
7:35 AM 33.3 °F 22.8 °F 26.8 °F 77% 30.18 in 10.0 mi SSW 16.1 mph - N/A   Clear
7:55 AM 34.0 °F 23.8 °F 27.3 °F 77% 30.18 in 10.0 mi SSW 16.1 mph - N/A   Clear
8:15 AM 36.3 °F 24.7 °F 28.0 °F 72% 30.18 in 10.0 mi SSW 24.2 mph 31.1 mph N/A   Clear
8:35 AM 37.6 °F 27.1 °F 28.4 °F 69% 30.17 in 10.0 mi SSW 20.7 mph 29.9 mph N/A   Clear
8:55 AM 39.4 °F 29.2 °F 28.8 °F 66% 30.17 in 10.0 mi SSW 21.9 mph 26.5 mph N/A   Clear
9:15 AM 39.9 °F 29.7 °F 28.4 °F 63% 30.17 in 10.0 mi SSW 23.0 mph 29.9 mph N/A   Clear
9:55 AM 42.4 °F 32.2 °F 28.9 °F 59% 30.14 in 10.0 mi SSW 27.6 mph 33.4 mph N/A   Clear
10:15 AM 45.1 °F 36.6 °F 29.1 °F 54% 30.13 in 10.0 mi SSW 23.0 mph 28.8 mph N/A   Clear
10:35 AM 46.6 °F - 29.1 °F 51% 30.12 in 10.0 mi SW 20.7 mph 34.5 mph N/A   Clear
10:55 AM 46.6 °F - 28.6 °F 50% 30.10 in 10.0 mi SW 24.2 mph 31.1 mph N/A   Clear
11:15 AM 48.4 °F - 28.9 °F 47% 30.08 in 10.0 mi SSW 24.2 mph 33.4 mph N/A   Clear
11:35 AM 49.6 °F - 28.9 °F 45% 30.06 in 10.0 mi SSW 31.1 mph 36.8 mph N/A   Clear
11:55 AM 50.7 °F - 28.8 °F 43% 30.03 in 10.0 mi SSW 25.3 mph 32.2 mph N/A   Clear
12:15 PM 51.6 °F - 28.4 °F 41% 30.00 in 10.0 mi SW 28.8 mph 36.8 mph N/A   Clear
12:35 PM 52.9 °F - 28.2 °F 39% 29.98 in 10.0 mi SW 33.4 mph 43.7 mph N/A   Clear
12:55 PM 53.1 °F - 28.4 °F 39% 29.97 in 10.0 mi SW 31.1 mph 38.0 mph N/A   Clear
1:15 PM 53.6 °F - 28.8 °F 39% 29.96 in 10.0 mi SW 27.6 mph 36.8 mph N/A   Clear
1:35 PM 54.7 °F - 29.5 °F 38% 29.95 in 10.0 mi SW 27.6 mph 36.8 mph N/A   Clear
1:55 PM 54.7 °F - 29.1 °F 38% 29.95 in 10.0 mi SW 32.2 mph 39.1 mph N/A   Clear
2:15 PM 55.8 °F - 29.3 °F 36% 29.93 in 10.0 mi SW 29.9 mph 38.0 mph N/A   Clear
2:35 PM 55.9 °F - 29.1 °F 36% 29.92 in 10.0 mi SW 31.1 mph 38.0 mph N/A   Clear
2:55 PM 56.3 °F - 29.3 °F 36% 29.91 in 10.0 mi SW 28.8 mph 34.5 mph N/A   Clear
3:15 PM 56.5 °F - 29.3 °F 35% 29.91 in 10.0 mi SW 28.8 mph 39.1 mph N/A   Clear
3:35 PM 56.7 °F - 29.3 °F 35% 29.92 in 10.0 mi SW 24.2 mph 29.9 mph N/A   Clear
3:55 PM 56.7 °F - 28.9 °F 35% 29.92 in 10.0 mi WSW 26.5 mph 32.2 mph N/A   Clear
4:15 PM 55.8 °F - 29.3 °F 36% 29.92 in 10.0 mi WSW 18.4 mph 33.4 mph N/A   Clear
4:35 PM 54.3 °F - 29.8 °F 39% 29.92 in 10.0 mi SW 20.7 mph 31.1 mph N/A   Clear
4:55 PM 53.2 °F - 30.0 °F 41% 29.92 in 10.0 mi SW 18.4 mph - N/A   Clear
5:15 PM 51.3 °F - 30.2 °F 44% 29.93 in 10.0 mi SW 16.1 mph - N/A   Clear
5:35 PM 50.0 °F - 30.2 °F 47% 29.92 in 10.0 mi SW 15.0 mph - N/A   Clear
5:55 PM 49.1 °F - 30.2 °F 48% 29.93 in 10.0 mi SW 13.8 mph - N/A   Clear
6:15 PM 48.4 °F - 30.2 °F 49% 29.93 in 10.0 mi SW 13.8 mph 19.6 mph N/A   Clear
6:35 PM 48.2 °F - 30.6 °F 51% 29.94 in 10.0 mi SW 13.8 mph - N/A   Clear
6:55 PM 47.1 °F - 30.7 °F 53% 29.94 in 10.0 mi SW 15.0 mph - N/A   Clear
7:15 PM 46.8 °F - 30.6 °F 53% 29.94 in 10.0 mi SW 13.8 mph - N/A   Clear
7:35 PM 46.0 °F 39.9 °F 30.2 °F 54% 29.94 in 10.0 mi SW 13.8 mph - N/A   Clear
7:55 PM 45.5 °F 38.6 °F 30.6 °F 56% 29.94 in 10.0 mi SW 16.1 mph - N/A   Clear
8:15 PM 45.5 °F 38.3 °F 30.7 °F 56% 29.93 in 10.0 mi SW 17.3 mph - N/A   Clear
8:35 PM 44.8 °F 37.4 °F 30.9 °F 58% 29.93 in 10.0 mi SW 17.3 mph - N/A   Clear
8:55 PM 45.0 °F 37.9 °F 30.9 °F 58% 29.93 in 10.0 mi SW 16.1 mph - N/A   Clear
9:35 PM 42.8 °F 36.2 °F 30.7 °F 62% 29.93 in 10.0 mi SW 12.7 mph - N/A   Clear
9:55 PM 42.3 °F 34.8 °F 30.7 °F 64% 29.92 in 10.0 mi SW 15.0 mph - N/A   Clear
10:15 PM 42.8 °F 35.8 °F 30.9 °F 63% 29.92 in 10.0 mi SW 13.8 mph - N/A   Clear
10:35 PM 42.1 °F 35.2 °F 30.7 °F 64% 29.92 in 10.0 mi SW 12.7 mph - N/A   Clear
10:55 PM 41.4 °F 34.3 °F 30.7 °F 66% 29.92 in 10.0 mi SW 12.7 mph - N/A   Clear
11:15 PM 41.7 °F 35.2 °F 30.7 °F 65% 29.92 in 10.0 mi SW 11.5 mph - N/A   Clear
11:35 PM 41.4 °F 34.3 °F 30.7 °F 66% 29.92 in 10.0 mi SW 12.7 mph - N/A   Clear
11:55 PM 41.5 °F 34.2 °F 30.7 °F 65% 29.91 in 10.0 mi SW 13.8 mph - N/A   Clear